World > North America > United States > Iowa > Fiscus

Hourly Fiscus, IA Regional Weather

Feedback E-mail the Weather

Quick WX

Fiscus, IA Weather Maps

°F °C°F °C
Fiscus Weather Map
UTC Time: 8/19/2022, 10:25
Your Time:

Fiscus, IA Regional Weather

Expires:202208191100;;305494
ASUS43 KDMX 191006
RWRIA 

WEATHER ROUNDUP FOR IOWA
NATIONAL WEATHER SERVICE DES MOINES IA
500 AM CDT FRI AUG 19 2022

NOTE: "FAIR" INDICATES FEW OR NO CLOUDS BELOW 12,000 FEET WITH NO
SIGNIFICANT WEATHER AND/OR OBSTRUCTIONS TO VISIBILITY.

* - THESE STATIONS ARE NOT NWS STATIONS...THUS NOT UNDER NWS
QUALITY CONTROL.  THEY ALSO DO NOT REPORT WEATHER SUCH 
AS PRECIPITATION OR FOG.  


IAZ055>058-069>071-079>083-090>094-191100-
   SOUTHWEST IOWA
  
CITY           SKY/WX    TMP DP  RH WIND       PRES   REMARKS
ATLANTIC *     CLEAR     63  63 100 SW3       29.85                   
AUDUBON *      PTCLDY    61  57  88 CALM      29.87                   
CLARINDA *     CLEAR     64  64 100 S6        29.88                   
COUNCIL BLFS * CLEAR     66  63  88 CALM      29.84                   
CRESTON *      PTCLDY    64  63  94 S8        29.87                   
HARLAN  *      CLEAR     61  61 100 CALM      29.86  FOG              
LAMONI         MOCLDY    68  60  75 S10       29.88F                  
RED OAK *      PTCLDY    64  63  94 CALM      29.87                   
SHENANDOAH *   CLEAR     64  63  94 CALM      29.85                   
$$
 

SKY/WX - Weather  TMP - Temperature  DP - Dew Point  RH - Humidity
WIND - Wind Direction/Speed PRES - Barometric Pressure VSB - Visibility
WCI - Wind Chill Index E13G22 Wind - East Wind 13 mph/Gusts of 22 mph

Trending Headlines

Fiscus Radar Loop



Fiscus Quick Facts


National Two Day Weather Forecast


E-mail the Fiscus Weather Forecast

Voice your opinion or tell us about page issues...